This is the latest recevied weather packets stored in our database for station/object OE6PLD-13. If no packets are shown the sender has not sent any weather packets the latest 10 day(s).
| Time | Temp. | Humidity | Pressure | Rain* | Wind** | Luminosity | Snow |
|---|---|---|---|---|---|---|---|
| 1777799789 | 22.22° C | 44% | 1010.7 hPa | 0.76 mm | - | 613 W/m² | - |
| 1777799606 | 22.22° C | 45% | 1010.7 hPa | 0.76 mm | - | 622 W/m² | - |
| 1777799423 | 22.22° C | 46% | 1010.7 hPa | 0.76 mm | - | 630 W/m² | - |
| 1777799239 | 22.22° C | 46% | 1010.8 hPa | 0.76 mm | - | 641 W/m² | - |
| 1777799056 | 21.67° C | 48% | 1010.7 hPa | 0.76 mm | - | 657 W/m² | - |
| 1777798873 | 21.11° C | 48% | 1010.9 hPa | 0.76 mm | - | 660 W/m² | - |
| 1777798689 | 21.67° C | 48% | 1010.8 hPa | 0.76 mm | - | 666 W/m² | - |
| 1777798506 | 21.67° C | 48% | 1010.8 hPa | 0.76 mm | - | 690 W/m² | - |
| 1777798322 | 21.67° C | 49% | 1010.8 hPa | 0.76 mm | - | 720 W/m² | - |
| 1777798139 | 21.11° C | 49% | 1010.9 hPa | 0.76 mm | - | 716 W/m² | - |
| 1777797956 | 20.56° C | 49% | 1010.6 hPa | 0.76 mm | - | 709 W/m² | - |
| 1777797772 | 21.11° C | 48% | 1010.6 hPa | 0.76 mm | - | 715 W/m² | - |
| 1777797589 | 20.56° C | 50% | 1010.8 hPa | 0.76 mm | - | 699 W/m² | - |
| 1777797406 | 20.56° C | 49% | 1010.8 hPa | 0.76 mm | - | 694 W/m² | - |
| 1777797222 | 20.56° C | 49% | 1010.8 hPa | 0.76 mm | - | 688 W/m² | - |
| 1777797039 | 20.56° C | 50% | 1010.8 hPa | 0.76 mm | - | 679 W/m² | - |
| 1777796856 | 20.56° C | 49% | 1010.7 hPa | 0.76 mm | - | 666 W/m² | - |
| 1777796672 | 20° C | 50% | 1010.9 hPa | 0.76 mm | - | 648 W/m² | - |
| 1777796489 | 20° C | 52% | 1011 hPa | 0.76 mm | - | 648 W/m² | - |
| 1777796306 | 20° C | 50% | 1010.7 hPa | 0.76 mm | - | 691 W/m² | - |
| 1777796122 | 20° C | 50% | 1011.1 hPa | 0.76 mm | - | 725 W/m² | - |
| 1777795939 | 20.56° C | 49% | 1010.7 hPa | 0.76 mm | - | 729 W/m² | - |
| 1777795756 | 20° C | 50% | 1010.9 hPa | 0.76 mm | - | 709 W/m² | - |
| 1777795572 | 20.56° C | 50% | 1010.9 hPa | 0.76 mm | - | 696 W/m² | - |
| 1777795389 | 20° C | 50% | 1010.9 hPa | 0.76 mm | - | 661 W/m² | - |
* Rain latest hour (hover to see other rain measurements)
** Current wind speed in m/s (hover to see current wind gust speed)